SCP
0 0 0 0 0 0 0 0 0 0 0 0 0 0 0 0 0 0 0 0 0 0 0 0 0 0 0 0 0 0 0 0 0 0 0 0 0 0 0 0 0 0 0 0
0 0 0 0 0 0 0 0 0 0 0 0 0 0 0 0 0 0 0 0 0 0 0 0 0 0 0 0 0 0 0 0 0 0 0 0 0 0 0 0 0 0 0 0
0 0 0 0 0 0 0 0 0 0 0 0 0 0 0 0 0 0 0 0 0 0 0 0 0 0 0 0 0 0 0 0 0 0 0 0 0 0 0 0 0 0 0 0
0 0 0 0 0 0 0 0 0 0 0 0 0 0 0 0 0 0 0 0 0 0 0 0 0 0 0 0 0 0 0 0 0 0 0 0 0 0 0 0 0 0 0 0
0 0 0 0 0 0 0 0 0 0 0 0 0 0 0 0 0 0 0 0 0 0 0 0 0 0 0 0 0 0 0 0 0 0 0 0 0 0 0 0 0 0 0 0
0 0 0 0 0 0 0 0 0 0 0 0 0 0 0 0 0 0 0 0 0 0 0 0 0 0 0 0 0 0 0 0 0 0 0 0 0 0 0 0 0 0 0 0
0 0 0 0 0 0 0 0 0 0 0 0 0 0 0 0 0 0 0 0 0 0 0 0 0 0 0 0 0 0 0 0 0 0 0 0 0 0 0 0 0 0 0 0
0 0 0 0 0 0 0 0 0 0 0 0 0 0 0 0 0 0 0 0 0 0 0 0 0 0 0 0 0 0 0 0 0 0 0 0 0 0 0 0 0 0 0 0
0 0 0 0 0 0 0 0 0 0 0 0 0 0 0 0 0 0 0 0 0 0 0 0 0 0 0 0 0 0 0 0 0 0 0 0 0 0 0 0 0 0 0 0
0 0 0 0 0 0 0 0 0 0 0 0 0 0 0 0 0 0 0 0 0 0 0 0 0 0 0 0 0 0 0 0 0 0 0 0 0 0 0 0 0 0 0 0
0 0 0 0 0 0 0 0 0 0 0 0 0 0 0 0 0 0 0 0 0 0 0 0 0 0 0 0 0 0 0 0 0 0 0 0 0 0 0 0 0 0 0 0
0 0 0 0 0 0 0 0 0 0 0 0 0 0 0 0 0 0 0 0 0 0 0 0 0 0 0 0 0 0 0 0 0 0 0 0 0 0 0 0 0 0 0 0
0 0 0 0 0 0 0 0 0 0 0 0 0 0 0 0 0 0 0 0 0 0 0 0 0 0 0 0 0 0 0 0 0 0 0 0 0 0 0 0 0 0 0 0
0 0 0 0 0 0 0 0 0 0 0 0 0 0 0 0 0 0 0 0 0 0 0 0 0 0 0 0 0 0 0 0 0 0 0 0 0 0 0 0 0 0 0 0
0 0 0 0 0 0 0 0 0 0 0 0 0 0 0 0 0 0 0 0 0 0 0 0 0 0 0 0 0 0 0 0 0 0 0 0 0 0 0 0 0 0 0 0
0 0 0 0 0 0 0 0 0 0 0 0 0 0 0 0 0 0 0 0 0 0 0 0 0 0 0 0 0 0 0 0 0 0 0 0 0 0 0 0 0 0 0 0
0 0 0 0 0 0 0 0 0 0 0 0 0 0 0 0 0 0 0 0 0 0 0 0 0 0 0 0 0 0 0 0 0 0 0 0 0 0 0 0 0 0 0 0
0 0 0 0 0 0 0 0 0 0 0 0 0 0 0 0 0 0 0 0 0 0 0 0 0 0 0 0 0 0 0 0 0 0 0 0 0 0 0 0 0 0 0 0
0 0 0 0 0 0 0 0 0 0 0 0 0 0 0 0 0 0 0 0 0 0 0 0 0 0 0 0 0 0 0 0 0 0 0 0 0 0 0 0 0 0 0 0
0 0 0 0 0 0 0 0 0 0 0 0 0 0 0 0 0 0 0 0 0 0 0 0 0 0 0 0 0 0 0 0 0 0 0 0 0 0 0 0 0 0 0 0
0 0 0 0 0 0 0 0 0 0 0 0 0 0 0 0 0 0 0 0 0 0 0 0 0 0 0 0 0 0 0 0 0 0 0 0 0 0 0 0 0 0 0 0
0 0 0 0 0 0 0 0 0 0 0 0 0 0 0 0 0 0 0 0 0 0 0 0 0 0 0 0 0 0 0 0 0 0 0 0 0 0 0 0 0 0 0 0
0 0 0 0 0 0 0 0 0 0 0 0 0 0 0 0 0 0 0 0 0 0 0 0 0 0 0 0 0 0 0 0 0 0 0 0 0 0 0 0 0 0 0 0
0 0 0 0 0 0 0 0 0 0 0 0 0 0 0 0 0 0 0 0 0 0 0 0 0 0 0 0 0 0 0 0 0 0 0 0 0 0 0 0 0 0 0 0
0 0 0 0 0 0 0 0 0 0 0 0 0 0 0 0 0 0 0 0 0 0 0 0 0 0 0 0 0 0 0 0 0 0 0 0 0 0 0 0 0 0 0 0
0 0 0 0 0 0 0 0 0 0 0 0 0 0 0 0 0 0 0 0 0 0 0 0 0 0 0 0 0 0 0 0 0 0 0 0 0 0 0 0 0 0 0 0
0 0 0 0 0 0 0 0 0 0 0 0 0 0 0 0 0 0 0 0 0 0 0 0 0 0 0 0 0 0 0 0 0 0 0 0 0 0 0 0 0 0 0 0
Wind_Speed
8 7 4 6 7 9 10 10 9 8 8 9 4 3 2 1 1 2 2 2 2 2 2 1 1 1 1 1 1 1 1 1 1 1 1 1 1 1 1 1 2 2 2 3
7 5 5 9 10 10 11 10 11 10 12 8 4 3 3 2 2 2 2 2 2 2 2 2 2 2 1 2 1 1 1 1 1 1 1 1 1 1 1 1 1 1 2 2
5 3 5 10 11 10 7 7 7 11 10 5 4 4 3 3 2 2 2 3 3 3 3 2 2 2 2 2 1 1 1 1 1 1 1 1 0 0 1 1 1 2 2 2
3 2 9 7 1 6 7 6 6 6 6 5 5 4 2 3 3 3 3 3 3 3 3 3 2 2 2 1 1 1 1 1 1 1 1 1 0 1 1 1 1 2 2 2
3 5 9 5 2 2 4 6 5 7 8 8 6 4 2 4 4 3 3 3 3 3 3 2 3 2 1 1 1 1 1 2 2 1 1 1 1 1 1 1 1 1 1 1
4 5 7 4 1 2 2 5 2 2 4 5 3 3 3 5 5 5 4 3 3 3 3 3 3 2 1 1 1 1 2 2 2 1 1 1 1 1 1 1 1 1 1 1
7 7 7 4 2 1 3 4 2 2 2 3 2 3 4 5 5 4 4 4 4 3 3 3 3 2 1 1 2 3 3 2 2 1 1 1 1 1 1 1 1 0 0 1
5 7 9 1 2 3 2 2 3 3 3 3 4 4 4 4 4 4 4 4 4 3 3 3 3 2 2 2 3 3 2 2 2 2 1 1 1 1 1 1 0 0 0 1
7 7 1 3 2 0 2 2 3 3 4 3 4 5 5 5 5 5 5 4 4 3 4 4 3 2 2 3 3 3 2 2 2 2 1 1 1 0 0 0 0 1 1 1
4 5 2 1 1 2 2 2 3 4 4 4 5 6 6 6 6 6 5 5 4 3 4 4 4 3 3 3 3 2 2 2 1 1 1 1 1 0 0 1 1 1 2 2
5 4 3 1 2 3 3 4 5 6 5 5 5 6 6 6 6 6 6 5 4 3 4 5 4 4 3 3 2 1 2 1 1 1 1 1 1 1 1 1 2 2 2 2
6 2 3 3 3 4 4 5 5 6 7 7 6 6 6 6 5 5 5 5 5 4 4 4 4 4 3 3 1 1 1 1 1 1 1 1 1 1 3 2 3 2 2 1
3 4 4 2 3 5 4 5 5 5 6 7 6 6 6 6 6 6 6 5 5 5 5 4 4 4 3 3 2 2 2 2 2 1 1 1 1 1 2 3 3 3 3 3
3 3 2 3 4 5 5 6 5 5 5 5 5 6 5 6 6 6 6 6 5 5 5 4 4 4 3 2 2 2 2 2 2 2 2 2 2 2 2 2 2 3 3 4
3 3 2 3 3 4 5 5 5 5 6 6 5 5 6 6 7 7 6 5 4 4 5 4 4 5 3 2 2 2 2 2 2 2 2 2 2 2 2 2 2 2 1 2
4 2 2 2 4 4 5 5 5 6 6 6 6 6 6 6 6 6 5 4 4 5 5 4 5 5 3 2 2 2 2 3 2 2 1 1 1 2 2 2 2 1 1 2
2 2 3 4 5 5 5 5 5 6 6 6 6 7 6 5 5 5 5 4 4 5 5 4 5 5 4 3 2 2 2 2 2 1 1 2 1 2 2 2 2 2 2 2
1 3 3 3 4 5 6 6 5 6 6 6 6 6 5 5 6 6 6 5 5 5 5 4 4 4 3 3 2 2 2 2 1 2 1 1 2 1 1 2 2 2 2 2
1 2 3 3 3 4 4 5 6 6 5 5 5 5 5 5 5 5 5 5 5 6 6 5 6 4 4 4 3 2 2 2 1 1 1 2 2 1 2 2 2 2 2 2
2 2 2 3 3 3 4 4 5 5 5 4 4 5 5 5 5 4 4 4 4 4 5 5 5 4 4 4 4 2 2 2 2 1 1 1 2 2 2 2 2 2 2 3
2 2 2 3 3 3 3 4 4 5 5 4 4 4 5 5 4 4 4 5 5 4 5 5 3 3 3 3 3 2 2 2 2 2 2 2 2 2 2 2 2 3 3 3
2 2 3 3 3 4 4 3 4 4 4 4 4 4 4 5 5 4 4 4 5 5 5 4 3 4 4 3 2 2 2 2 2 2 2 2 2 2 3 3 3 3 3 3
2 2 3 3 3 4 4 4 3 4 4 4 4 4 4 5 4 4 5 4 4 5 4 3 4 5 5 2 2 2 2 2 2 2 2 2 2 3 3 3 3 3 4 4
2 3 3 3 2 3 4 5 4 4 4 4 4 4 4 4 4 3 3 5 6 6 4 4 6 6 5 2 2 2 2 2 2 2 2 2 2 3 3 3 4 4 4 5
3 3 3 2 3 3 4 4 4 4 4 3 4 4 3 2 3 4 4 4 6 6 4 5 6 6 4 2 2 2 2 2 3 3 3 3 3 3 3 4 4 4 4 4
2 3 3 3 3 3 3 3 3 3 3 4 4 3 3 3 3 3 3 4 4 4 4 4 4 4 3 3 3 3 3 3 3 3 3 3 4 4 4 4 5 5 5 5
3 3 2 2 2 2 2 2 3 3 3 3 4 4 4 3 3 3 3 3 3 3 3 3 3 3 3 3 3 3 3 3 3 3 3 3 4 4 4 5 5 4 4 5
Wind_Direction
272 281 266 243 232 215 216 225 230 246 248 262 267 277 304 355 12 13 9 3 354 337 333 335 333 334 341 326 334 334 277 260 272 280 271 250 240 227 212 211 218 213 210 212
280 266 264 265 251 229 228 235 245 261 269 275 295 307 317 326 336 338 345 335 331 331 329 322 314 313 322 323 333 331 289 273 293 297 273 276 274 246 228 226 225 216 223 219
274 296 305 264 241 215 214 218 217 238 254 302 312 315 320 331 334 336 333 334 330 321 322 320 307 304 289 303 340 329 296 305 306 303 279 274 302 312 257 245 229 225 227 222
270 299 248 245 241 189 204 230 227 252 282 305 305 312 343 356 353 341 340 341 336 331 324 324 329 326 326 358 10 325 331 336 320 312 304 316 300 268 274 267 238 229 230 226
227 252 267 281 271 176 211 251 239 245 271 289 301 310 314 15 10 344 337 336 331 332 327 336 339 339 356 10 20 6 334 332 323 302 302 298 252 261 274 280 264 236 228 225
227 240 248 270 288 279 192 259 304 255 274 300 326 292 295 1 357 346 350 357 354 350 355 356 350 359 16 350 345 309 310 315 321 304 271 270 273 292 317 296 277 273 271 255
227 242 260 289 306 54 184 268 337 345 340 337 293 267 310 340 343 346 353 359 360 357 359 353 0 12 350 329 309 324 338 343 346 345 318 324 339 345 360 20 26 349 287 325
207 228 250 345 109 173 246 351 3 355 350 332 313 312 320 323 329 344 354 357 1 357 353 2 10 9 334 316 330 347 349 350 349 349 342 355 23 10 23 72 116 211 300 310
202 219 232 138 173 285 12 352 349 342 336 326 313 312 318 321 328 340 344 343 352 350 344 356 4 359 315 318 341 345 348 342 342 346 345 351 19 24 29 47 210 233 244 265
239 254 259 250 318 360 8 355 345 340 332 332 316 315 319 322 330 333 335 337 344 349 338 336 343 343 325 332 344 344 332 328 333 337 343 352 353 7 296 262 257 246 241 251
246 276 313 292 351 338 347 355 346 341 340 337 329 321 321 321 323 324 326 331 338 334 319 320 329 330 332 332 340 327 316 319 323 317 303 333 347 334 290 275 248 250 244 231
241 259 268 285 349 356 355 346 343 342 339 340 335 319 319 315 317 319 322 326 327 323 317 317 319 318 321 316 308 286 289 290 287 289 291 275 292 335 341 330 323 309 308 291
277 298 281 297 356 359 341 334 338 336 326 327 331 329 322 316 318 319 318 320 315 310 309 308 308 305 306 304 289 255 256 263 263 259 256 252 249 253 299 329 340 335 326 316
319 325 304 325 329 344 342 339 339 335 332 328 324 326 324 320 318 315 311 311 311 309 304 298 297 295 298 291 277 265 262 258 249 242 237 237 236 240 246 264 297 312 311 300
326 322 291 322 345 349 344 341 337 333 335 332 328 323 321 317 311 307 308 311 312 307 302 300 297 299 302 284 272 267 266 264 258 254 244 239 238 236 240 243 256 281 319 316
324 336 347 340 327 330 336 334 324 316 319 318 317 315 311 306 304 305 310 314 309 304 305 306 303 307 301 280 274 272 267 270 264 254 247 238 234 233 237 242 249 256 271 288
355 325 325 319 315 317 316 311 302 301 305 305 306 307 308 307 309 311 314 314 303 298 299 302 302 305 303 280 264 269 269 268 257 254 240 229 225 229 238 238 241 253 267 275
246 263 271 275 289 300 307 313 312 310 306 305 309 310 309 307 305 309 314 318 317 318 315 309 304 309 306 296 278 270 262 257 248 244 249 242 242 241 235 235 242 252 273 278
292 281 289 293 289 288 294 301 305 306 306 309 310 305 303 303 305 309 316 318 319 319 322 324 323 328 316 310 303 279 267 261 253 248 246 243 238 234 237 242 246 251 258 263
299 296 290 293 297 291 292 299 303 304 305 304 306 309 313 313 313 313 316 311 303 299 310 318 318 315 312 311 319 301 277 261 256 255 249 244 242 241 241 246 248 251 253 253
289 292 294 296 301 300 292 298 305 304 307 307 307 308 307 310 314 314 314 310 313 319 318 318 317 314 314 320 317 304 290 276 264 257 252 250 253 251 247 248 251 252 254 258
289 293 296 300 306 310 314 314 307 304 313 319 320 318 317 317 319 317 301 287 304 322 324 320 318 318 323 326 315 303 294 285 274 266 260 258 256 259 262 257 255 257 256 254
294 293 296 298 299 304 314 317 313 312 313 313 315 314 311 310 311 310 309 312 316 319 322 315 316 324 331 329 314 302 294 284 274 267 262 260 258 257 260 263 264 260 257 256
302 303 300 303 314 321 319 320 318 311 307 305 304 303 305 311 313 305 298 310 319 320 322 321 326 335 340 336 326 314 302 291 279 272 266 263 262 260 261 263 265 265 264 261
295 299 302 311 314 304 300 309 315 313 313 313 312 308 300 294 294 306 315 318 323 326 325 328 334 338 341 333 322 311 304 299 297 293 276 266 263 261 261 261 261 265 266 264
298 291 287 283 283 293 303 312 312 310 315 317 316 314 312 309 304 306 314 318 320 324 326 327 328 333 333 328 320 312 306 305 303 295 289 281 273 268 266 264 263 263 265 266
296 292 298 304 302 295 296 297 298 303 306 304 306 311 316 318 318 320 321 325 328 330 328 324 325 328 329 327 323 319 314 308 301 294 290 287 285 281 280 274 270 268 268 266